Location: Martz Observatory
(42.0083°N, 79.0667°W)
Time: 18:47:31
(UTC-05:00)

Daily predictions for brighter satellites

Satellite Brightness Start Highest point End
(mag) Time Altitude Azimuth Time Altitude Azimuth Time Altitude Azimuth
Cosmos 2074 Rocket 4.5 17:33:44 10° NNW 17:39:54 68° W 17:46:03 10° S
Cosmos 1484 Rocket 2.8 17:36:06 10° SSE 17:39:56 89° WSW 17:43:44 10° NNW
Cosmos 2221 3.4 17:36:56 10° NNE 17:40:46 29° ENE 17:44:35 10° SE
CORIOLIS 4.1 17:36:33 10° SSE 17:41:51 68° ENE 17:47:10 10° N
Ariane Rocket 3.0 17:39:07 10° SSE 17:44:08 77° ENE 17:49:14 10° N
Lacrosse 4 Rocket 3.6 17:41:58 10° W 17:45:04 20° NW 17:48:10 10° N
Cosmos 1300 4.1 17:42:57 10° NNE 17:45:38 18° ENE 17:48:20 10° ESE
CSL-04 Rocket 3.9 17:41:00 10° SSE 17:46:33 86° WSW 17:52:08 10° NNW
COSMO-SKYMED 1 3.4 17:45:01 10° NNE 17:48:55 32° E 17:52:48 10° SSE
IRS-1A Rocket 4.3 17:46:55 10° SSE 17:52:19 58° ENE 17:57:49 10° N
Cosmos 1943 Rocket 2.6 17:49:47 10° N 17:55:05 41° ENE 18:00:18 10° SE
CZ-2C R/B 3.9 17:51:36 10° NNE 17:56:17 59° E 18:00:53 10° S
Nadezhda 1 Rocket 4.4 17:52:12 10° SSW 17:58:22 69° W 18:04:41 10° N
BREEZE-M R/B 3.8 17:54:39 10° SW 17:58:35 76° SE 18:11:43 11° ENE
Tiangong 1 0.4 17:57:59 10° WSW 18:00:28 88° S 18:02:22 15° E
Cosmos 1503 Rocket 4.0 17:56:05 10° NNW 18:01:25 84° ENE 18:06:47 10° SSE
SMAP 3.7 17:58:27 10° S 18:03:03 63° W 18:07:41 10° NNW
NOSS 7 (H) 4.5 18:00:53 10° SW 18:04:19 77° NW 18:07:39 10° NNE
Meteor 1-21 Rocket 4.4 17:59:53 10° S 18:05:38 62° E 18:11:30 10° NNE
ERS-2 3.3 18:02:49 10° ESE 18:05:46 23° ENE 18:08:43 10° NNE
Cosmos 1842 Rocket 4.0 18:01:19 10° NNW 18:05:46 69° W 18:10:07 10° S
Cosmos 2341 Rocket 4.0 18:02:11 10° N 18:08:27 76° E 18:14:44 10° SSE
Cosmos 1908 3.6 18:05:10 10° NNW 18:09:02 70° W 18:12:51 10° S
Cosmos 962 Rocket 4.5 18:02:50 10° N 18:09:13 79° E 18:15:30 10° S
NOAA 12 4.3 18:07:21 10° SE 18:12:19 47° ENE 18:17:21 10° N
Meteor 1-28 Rocket 4.4 18:11:00 10° N 18:14:39 45° WNW 18:18:17 10° SSW
USA 116 4.1 18:12:26 10° N 18:16:31 76° WNW 18:21:08 10° SSW
MOS 1 4.3 18:11:02 10° SSE 18:16:34 62° ENE 18:22:09 10° N
Cosmos 1076 Rocket 3.8 18:12:23 10° SSE 18:16:34 48° E 18:20:47 10° NNE
Cosmos 1992 Rocket 4.0 18:11:59 10° SSW 18:17:11 86° ESE 18:22:25 10° NNE
FENGYUN 3A 3.6 18:13:28 10° SSE 18:18:42 60° ENE 18:23:59 10° N
Cosmos 2084 3.8 18:15:09 10° NW 18:18:53 59° WSW 18:22:43 10° SSE
NOSS 2-1 (C) 3.7 18:16:10 10° SW 18:19:48 58° NW 18:23:42 11° NNE
NOSS 2-1 (D) 3.8 18:16:50 10° SW 18:20:26 56° NW 18:24:20 11° NNE
Cosmos 1400 Rocket 2.8 18:16:40 10° S 18:20:39 65° E 18:24:42 10° NNE
SL-16 R/B 4.4 18:17:28 10° W 18:21:36 20° NW 18:25:46 10° N
KORONAS-FOTON 4.1 18:17:54 10° SSW 18:21:42 68° W 18:25:29 10° N
H-2A R/B 3.6 18:19:50 10° SE 18:23:01 26° ENE 18:26:14 10° NNE
Okean 3 Rocket 3.6 18:19:35 10° S 18:24:04 62° E 18:28:33 10° NNE
OAO 3 Rocket 4.4 18:25:10 10° SW 18:29:20 31° S 18:32:27 16° ESE
Cosmos 1766 Rocket 4.0 18:25:44 10° SSE 18:29:42 37° E 18:32:59 14° NNE
BREEZE-M R/B 3.1 18:31:24 10° W 18:33:42 34° NNW 18:34:09 30° N
Cosmos 2181 Rocket 4.1 18:28:29 10° S 18:34:56 85° W 18:41:25 10° N
Cosmos 1943 3.5 18:30:28 10° SSW 18:36:04 70° WNW 18:41:42 10° NNE
SKYMED 2 3.7 18:32:44 10° N 18:37:05 76° WNW 18:41:25 10° SSW
SL-24 R/B - RUBIN 2 4.4 18:33:24 10° NNW 18:37:28 30° NE 18:38:21 28° ENE
Cosmos 968 Rocket 3.3 18:32:40 10° NNW 18:37:52 78° ENE 18:42:58 10° SSE
ATLAS 2AS CENTAUR R/B 3.2 18:31:24 10° NW 18:39:19 73° WSW 18:46:33 10° SSE
Cosmos 1726 3.1 18:38:10 10° NNW 18:41:43 48° W 18:45:14 10° SSW
DMSP B5D1-3 4.4 18:40:21 10° NNE 18:45:27 73° ESE 18:50:32 10° S
ALOS 2.5 18:41:24 10° S 18:46:03 72° W 18:50:43 10° NNW
YAOGAN 1 4.0 18:43:06 10° S 18:47:10 40° W 18:51:16 10° NNW
EO 1 Del DPAF 3.2 18:43:37 10° NNE 18:47:24 89° WNW 18:51:14 10° SSW
CZ-4 R/B 3.8 18:44:22 10° SSW 18:47:57 27° W 18:51:34 10° NW
Cosmos 2218 Rocket 4.0 18:53:37 10° N 18:59:49 81° W 19:05:56 10° S
SL-8 Rocket 4.3 18:54:41 10° NNW 19:00:49 67° W 19:06:57 10° S
NOSS 3-4 (A) 3.9 18:54:52 10° NNW 19:01:44 55° NE 19:05:59 26° ESE
NOSS 3-4 (C) 3.9 18:54:58 10° NNW 19:01:50 55° NE 19:05:59 26° ESE
Thor Agena Rocket 3.8 19:02:12 39° ENE 19:03:15 44° E 19:08:13 10° S
SL-14 R/B 4.5 19:04:45 10° SSW 19:08:34 43° WNW 19:12:23 10° N
Cosmos 2369 Rocket 4.1 19:11:03 10° NW 19:15:54 30° WSW 19:20:45 10° SSW
Cosmos 1315 Rocket 3.8 19:20:21 10° SSW 19:24:08 44° WNW 19:26:06 24° NNW
Cosmos 1408 Rocket 3.9 19:20:16 10° SSW 19:24:31 61° W 19:26:39 28° N
Cosmos 1626 2.6 19:21:56 10° SSW 19:25:22 59° W 19:25:22 59° W
Meteor 1-27 4.2 19:26:23 10° N 19:32:06 87° W 19:37:52 10° S
USA 81 4.1 19:27:04 10° S 19:31:24 58° SSE 19:31:24 58° SSE
GEOS 3 Rocket 3.9 19:29:52 25° SSE 19:33:02 67° SW 19:38:24 10° NW
Meteor 1-11 4.3 19:30:30 10° SSW 19:36:04 73° W 19:40:04 20° N
Cosmos 44 3.5 19:33:32 10° SW 19:36:53 54° SW 19:36:53 54° SW
Cosmos 1656 Rocket 3.8 19:32:33 10° NNW 19:38:00 71° WSW 19:41:01 27° S
Cosmos 1943 Rocket 4.1 19:33:53 10° NW 19:38:37 29° WSW 19:43:18 10° SSW
USA 215 4.4 19:46:54 28° NNE 19:46:54 28° NNE 19:52:12 10° NW
Cosmos 1777 Rocket 4.4 19:41:59 10° NNW 19:47:09 62° WSW 19:49:05 37° S
Cosmos 1821 Rocket 4.4 19:42:16 10° N 19:46:38 48° N 19:46:38 48° N
Cosmos 44 Rocket 4.2 19:49:57 10° SW 19:53:08 43° SW 19:53:08 43° SW
COSMOS 2406 3.8 19:49:50 10° SSW 19:53:49 47° S 19:53:49 47° S
Nadezhda 3 Rocket 4.2 19:50:49 10° SSW 19:57:05 71° W 20:01:57 18° N
Cosmos 2098 Rocket 4.4 19:53:45 10° NNW 19:58:29 49° W 20:04:22 10° SSW
